| time (UTC) | temp F | wind direction | speed MPH | gust MPH | rain 1hr in | rain 24hr in | rain mn in | humidity % | barometer mb |
| 20260903180526 | 80 | 138 | 5.0 | 8.0 | 0.00 | 0.00 | 0.00 | 71 | 1018.2 |
| 20260903175523 | 81 | 156 | 3.0 | 8.0 | 0.00 | 0.00 | 0.00 | 70 | 1018.0 |
| 20260903174521 | 81 | 118 | 4.0 | 8.0 | 0.00 | 0.00 | 0.00 | 70 | 1018.1 |
| 20260903173518 | 81 | 119 | 6.0 | 11.0 | 0.00 | 0.00 | 0.00 | 69 | 1018.0 |
| 20260903172515 | 82 | 124 | 5.0 | 11.0 | 0.00 | 0.00 | 0.00 | 68 | 1017.9 |
| 20260903171613 | 82 | 218 | 4.0 | 13.0 | 0.00 | 0.00 | 0.00 | 67 | 1017.9 |
| 20260903170610 | 83 | 127 | 5.0 | 13.0 | 0.00 | 0.00 | 0.00 | 67 | 1017.8 |
| 20260903165608 | 83 | 178 | 7.0 | 14.0 | 0.00 | 0.00 | 0.00 | 66 | 1017.8 |
| 20260903164605 | 83 | 160 | 7.0 | 13.0 | 0.00 | 0.00 | 0.00 | 65 | 1017.9 |
| 20260903163603 | 84 | 178 | 6.0 | 13.0 | 0.00 | 0.00 | 0.00 | 64 | 1017.9 |
| 20260903162600 | 85 | 162 | 6.0 | 13.0 | 0.00 | 0.00 | 0.00 | 64 | 1017.8 |
| 20260903161558 | 85 | 151 | 8.0 | 11.0 | 0.00 | 0.00 | 0.00 | 62 | 1017.8 |
| 20260903160555 | 87 | 101 | 5.0 | 11.0 | 0.00 | 0.00 | 0.00 | 59 | 1017.8 |
| 20260903155552 | 87 | 142 | 5.0 | 11.0 | 0.00 | 0.00 | 0.00 | 58 | 1017.8 |
| 20260903154550 | 87 | 123 | 6.0 | 13.0 | 0.00 | 0.00 | 0.00 | 56 | 1017.9 |
| 20260903153547 | 88 | 124 | 4.0 | 9.0 | 0.00 | 0.00 | 0.00 | 53 | 1017.8 |
| 20260903152544 | 89 | 120 | 4.0 | 11.0 | 0.00 | 0.00 | 0.00 | 52 | 1017.9 |
| 20260903151542 | 90 | 138 | 6.0 | 13.0 | 0.00 | 0.00 | 0.00 | 49 | 1017.8 |
| 20260903150539 | 90 | 129 | 5.0 | 11.0 | 0.00 | 0.00 | 0.00 | 49 | 1017.8 |
| 20260903145537 | 90 | 205 | 3.0 | 8.0 | 0.00 | 0.00 | 0.00 | 50 | 1017.9 |
| 20260903144534 | 90 | 99 | 3.0 | 8.0 | 0.00 | 0.00 | 0.00 | 49 | 1017.9 |
| 20260903143531 | 89 | 146 | 4.0 | 11.0 | 0.00 | 0.00 | 0.00 | 49 | 1017.9 |
| 20260903142529 | 90 | 84 | 4.0 | 8.0 | 0.00 | 0.00 | 0.00 | 49 | 1017.8 |
| 20260903141526 | 90 | 85 | 3.0 | 8.0 | 0.00 | 0.00 | 0.00 | 50 | 1018.0 |
| 20260903140524 | 89 | 188 | 4.0 | 11.0 | 0.00 | 0.00 | 0.00 | 51 | 1018.0 |
| 20260903135521 | 89 | 115 | 5.0 | 11.0 | 0.00 | 0.00 | 0.00 | 51 | 1018.1 |
| 20260903134519 | 90 | 94 | 4.0 | 8.0 | 0.00 | 0.00 | 0.00 | 50 | 1018.0 |
| 20260903133516 | 90 | 112 | 3.0 | 9.0 | 0.00 | 0.00 | 0.00 | 50 | 1018.3 |
| 20260903132613 | 90 | 186 | 3.0 | 11.0 | 0.00 | 0.00 | 0.00 | 49 | 1018.3 |
| 20260903131611 | 89 | 96 | 3.0 | 11.0 | 0.00 | 0.00 | 0.00 | 49 | 1018.3 |
| 20260903130609 | 90 | 128 | 3.0 | 8.0 | 0.00 | 0.00 | 0.00 | 49 | 1018.3 |
| 20260903125605 | 90 | 82 | 2.0 | 7.0 | 0.00 | 0.00 | 0.00 | 47 | 1018.5 |
| 20260903124602 | 91 | 102 | 2.0 | 6.0 | 0.00 | 0.00 | 0.00 | 45 | 1018.4 |
| 20260903123600 | 89 | 75 | 4.0 | 8.0 | 0.00 | 0.00 | 0.00 | 46 | 1018.4 |
| 20260903122557 | 89 | 43 | 4.0 | 9.0 | 0.00 | 0.00 | 0.00 | 44 | 1018.5 |
| 20260903121555 | 90 | 66 | 3.0 | 7.0 | 0.00 | 0.00 | 0.00 | 44 | 1018.4 |
| 20260903120552 | 90 | 90 | 2.0 | 6.0 | 0.00 | 0.00 | 0.00 | 43 | 1018.4 |
| 20260903115550 | 89 | 23 | 4.0 | 11.0 | 0.00 | 0.00 | 0.00 | 44 | 1018.6 |
| 20260903114547 | 90 | 103 | 4.0 | 11.0 | 0.00 | 0.00 | 0.00 | 43 | 1018.5 |
| 20260903113544 | 90 | 240 | 2.0 | 4.0 | 0.00 | 0.00 | 0.00 | 42 | 1018.7 |
| 20260903112542 | 89 | 53 | 2.0 | 7.0 | 0.00 | 0.00 | 0.00 | 41 | 1018.8 |
| 20260903111539 | 88 | 105 | 4.0 | 11.0 | 0.00 | 0.00 | 0.00 | 42 | 1019.0 |
| 20260903110537 | 88 | 105 | 3.0 | 8.0 | 0.00 | 0.00 | 0.00 | 41 | 1019.0 |
| 20260903105534 | 89 | 355 | 3.0 | 9.0 | 0.00 | 0.00 | 0.00 | 40 | 1019.1 |
| 20260903104531 | 88 | 14 | 2.0 | 8.0 | 0.00 | 0.00 | 0.00 | 41 | 1019.2 |
| 20260903103529 | 88 | 107 | 1.0 | 4.0 | 0.00 | 0.00 | 0.00 | 42 | 1019.3 |
| 20260903102526 | 87 | 112 | 2.0 | 4.0 | 0.00 | 0.00 | 0.00 | 43 | 1019.4 |
| 20260903101524 | 87 | 130 | 3.0 | 6.0 | 0.00 | 0.00 | 0.00 | 43 | 1019.6 |
| 20260903100521 | 86 | 110 | 4.0 | 7.0 | 0.00 | 0.00 | 0.00 | 43 | 1019.5 |
| 20260903095518 | 87 | 69 | 2.0 | 6.0 | 0.00 | 0.00 | 0.00 | 40 | 1019.5 |
| 20260903094516 | 86 | 353 | 2.0 | 6.0 | 0.00 | 0.00 | 0.00 | 42 | 1019.6 |
| 20260903093613 | 85 | 116 | 3.0 | 6.0 | 0.00 | 0.00 | 0.00 | 44 | 1019.7 |
| 20260903092611 | 86 | 97 | 2.0 | 6.0 | 0.00 | 0.00 | 0.00 | 44 | 1019.7 |
| 20260903091608 | 85 | 113 | 1.0 | 4.0 | 0.00 | 0.00 | 0.00 | 46 | 1019.6 |
| 20260903090606 | 85 | 14 | 1.0 | 4.0 | 0.00 | 0.00 | 0.00 | 47 | 1019.5 |
| 20260903085603 | 84 | 110 | 2.0 | 6.0 | 0.00 | 0.00 | 0.00 | 47 | 1019.4 |
| 20260903084601 | 83 | 96 | 2.0 | 4.0 | 0.00 | 0.00 | 0.00 | 51 | 1019.4 |
| 20260903083558 | 83 | 45 | 2.0 | 4.0 | 0.00 | 0.00 | 0.00 | 51 | 1019.3 |
| 20260903082555 | 83 | 126 | 1.0 | 4.0 | 0.00 | 0.00 | 0.00 | 50 | 1019.1 |
| 20260903081553 | 82 | 113 | 1.0 | 4.0 | 0.00 | 0.00 | 0.00 | 52 | 1019.2 |
| 20260903080550 | 81 | 114 | 2.0 | 4.0 | 0.00 | 0.00 | 0.00 | 53 | 1019.1 |
| 20260903075548 | 82 | 130 | 0.0 | 2.0 | 0.00 | 0.00 | 0.00 | 53 | 1019.2 |
| 20260903074545 | 82 | 0.0 | 2.0 | 0.00 | 0.00 | 0.00 | 52 | 1019.1 | |
| 20260903073542 | 80 | 113 | 1.0 | 2.0 | 0.00 | 0.00 | 0.00 | 53 | 1019.1 |
| 20260903072540 | 79 | 113 | 1.0 | 2.0 | 0.00 | 0.00 | 0.00 | 54 | 1019.2 |
| 20260903071537 | 78 | 123 | 1.0 | 2.0 | 0.00 | 0.00 | 0.00 | 55 | 1019.1 |
| 20260903070535 | 78 | 99 | 1.0 | 2.0 | 0.00 | 0.00 | 0.00 | 55 | 1019.0 |
| 20260903065532 | 80 | 106 | 0.0 | 2.0 | 0.00 | 0.00 | 0.00 | 53 | 1019.0 |
| 20260903064559 | 79 | 0.0 | 0.0 | 0.00 | 0.00 | 0.00 | 54 | 1018.9 | |
| 20260903063557 | 78 | 0.0 | 2.0 | 0.00 | 0.00 | 0.00 | 55 | 1018.8 | |
| 20260903062554 | 77 | 0.0 | 0.0 | 0.00 | 0.00 | 0.00 | 57 | 1018.7 | |
| 20260903061552 | 76 | 0.0 | 0.0 | 0.00 | 0.00 | 0.00 | 58 | 1018.5 | |
| 20260903060549 | 74 | 225 | 0.0 | 2.0 | 0.00 | 0.00 | 0.00 | 60 | 1018.5 |
| 20260903055546 | 73 | 0.0 | 2.0 | 0.00 | 0.00 | 0.00 | 62 | 1018.4 | |
| 20260903054544 | 73 | 248 | 1.0 | 2.0 | 0.00 | 0.00 | 0.00 | 63 | 1018.4 |
| 20260903053541 | 72 | 234 | 1.0 | 2.0 | 0.00 | 0.00 | 0.00 | 64 | 1018.3 |
| 20260903052538 | 72 | 0.0 | 0.0 | 0.00 | 0.00 | 0.00 | 64 | 1018.2 | |
| 20260903051536 | 72 | 277 | 2.0 | 4.0 | 0.00 | 0.00 | 0.00 | 64 | 1018.1 |
| 20260903050533 | 72 | 225 | 0.0 | 2.0 | 0.00 | 0.00 | 0.00 | 65 | 1018.1 |
| 20260903045531 | 72 | 218 | 0.0 | 2.0 | 0.00 | 0.00 | 0.00 | 64 | 1018.1 |
| 20260903044528 | 72 | 0.0 | 0.0 | 0.00 | 0.00 | 0.00 | 64 | 1018.0 | |
| 20260903043526 | 73 | 0.0 | 2.0 | 0.00 | 0.00 | 0.00 | 63 | 1018.1 | |
| 20260903042523 | 73 | 225 | 2.0 | 4.0 | 0.00 | 0.00 | 0.00 | 63 | 1018.0 |
| 20260903041520 | 73 | 225 | 0.0 | 2.0 | 0.00 | 0.00 | 0.00 | 63 | 1018.0 |
| 20260903040518 | 73 | 254 | 2.0 | 4.0 | 0.00 | 0.00 | 0.00 | 63 | 1018.1 |
| 20260903035515 | 73 | 225 | 0.0 | 2.0 | 0.00 | 0.00 | 0.00 | 64 | 1018.2 |
| 20260903034613 | 72 | 0.0 | 0.0 | 0.00 | 0.00 | 0.00 | 65 | 1018.3 | |
| 20260903033610 | 73 | 0.0 | 0.0 | 0.00 | 0.00 | 0.00 | 64 | 1018.3 | |
| 20260903032608 | 73 | 0.0 | 0.0 | 0.00 | 0.00 | 0.00 | 64 | 1018.4 | |
| 20260903031605 | 73 | 242 | 1.0 | 2.0 | 0.00 | 0.00 | 0.00 | 63 | 1018.3 |
| 20260903030602 | 74 | 229 | 1.0 | 2.0 | 0.00 | 0.00 | 0.00 | 62 | 1018.5 |
| 20260903025600 | 74 | 246 | 2.0 | 4.0 | 0.00 | 0.00 | 0.00 | 60 | 1018.5 |
| 20260903024557 | 74 | 243 | 2.0 | 2.0 | 0.00 | 0.00 | 0.00 | 61 | 1018.6 |
| 20260903023554 | 74 | 261 | 2.0 | 4.0 | 0.00 | 0.00 | 0.00 | 62 | 1018.4 |
| 20260903022552 | 73 | 248 | 1.0 | 2.0 | 0.00 | 0.00 | 0.00 | 64 | 1018.5 |
| 20260903021549 | 73 | 248 | 2.0 | 2.0 | 0.00 | 0.00 | 0.00 | 64 | 1018.6 |
| 20260903020547 | 73 | 229 | 1.0 | 2.0 | 0.00 | 0.00 | 0.00 | 65 | 1018.6 |
| 20260903015544 | 73 | 180 | 0.0 | 2.0 | 0.00 | 0.00 | 0.00 | 65 | 1018.5 |
| 20260903014542 | 73 | 0.0 | 0.0 | 0.00 | 0.00 | 0.00 | 63 | 1018.5 | |
| 20260903013539 | 74 | 270 | 1.0 | 2.0 | 0.00 | 0.00 | 0.00 | 61 | 1018.6 |
| 20260903012536 | 74 | 0.0 | 0.0 | 0.00 | 0.00 | 0.00 | 62 | 1018.5 | |
| 20260903011534 | 74 | 270 | 1.0 | 2.0 | 0.00 | 0.00 | 0.00 | 62 | 1018.7 |
| 20260903010531 | 74 | 248 | 1.0 | 2.0 | 0.00 | 0.00 | 0.00 | 63 | 1018.6 |
| 20260903005529 | 73 | 241 | 2.0 | 4.0 | 0.00 | 0.00 | 0.00 | 63 | 1018.8 |
| 20260903004526 | 73 | 225 | 1.0 | 2.0 | 0.00 | 0.00 | 0.00 | 63 | 1018.8 |
| 20260903003523 | 73 | 240 | 1.0 | 2.0 | 0.00 | 0.00 | 0.00 | 63 | 1018.8 |
| 20260903002521 | 73 | 245 | 2.0 | 4.0 | 0.00 | 0.00 | 0.00 | 63 | 1018.9 |
| 20260903001518 | 73 | 248 | 1.0 | 2.0 | 0.00 | 0.00 | 0.00 | 63 | 1018.9 |
| 20260903000516 | 73 | 203 | 1.0 | 2.0 | 0.00 | 0.00 | 0.00 | 63 | 1019.2 |
| 20260902235613 | 73 | 203 | 0.0 | 2.0 | 0.00 | 0.00 | 0.00 | 61 | 1019.0 |
| 20260902234611 | 74 | 181 | 1.0 | 2.0 | 0.00 | 0.00 | 0.00 | 60 | 1019.1 |
| 20260902233608 | 74 | 230 | 1.0 | 2.0 | 0.00 | 0.00 | 0.00 | 60 | 1018.9 |
| 20260902232606 | 74 | 234 | 2.0 | 4.0 | 0.00 | 0.00 | 0.00 | 61 | 1018.9 |
| 20260902231603 | 74 | 181 | 1.0 | 2.0 | 0.00 | 0.00 | 0.00 | 61 | 1018.8 |
| 20260902230600 | 75 | 244 | 1.0 | 4.0 | 0.00 | 0.00 | 0.00 | 60 | 1018.8 |
| 20260902225558 | 75 | 225 | 0.0 | 2.0 | 0.00 | 0.00 | 0.00 | 59 | 1018.8 |
| 20260902224555 | 75 | 246 | 1.0 | 2.0 | 0.00 | 0.00 | 0.00 | 60 | 1018.7 |
| 20260902223553 | 74 | 264 | 2.0 | 4.0 | 0.00 | 0.00 | 0.00 | 62 | 1018.7 |
| 20260902222550 | 74 | 225 | 1.0 | 2.0 | 0.00 | 0.00 | 0.00 | 66 | 1018.7 |
| 20260902221547 | 74 | 300 | 0.0 | 2.0 | 0.00 | 0.00 | 0.00 | 67 | 1018.9 |
| 20260902220545 | 74 | 248 | 2.0 | 4.0 | 0.00 | 0.00 | 0.00 | 70 | 1018.9 |
| 20260902215542 | 73 | 237 | 3.0 | 4.0 | 0.00 | 0.00 | 0.00 | 72 | 1018.9 |
| 20260902214540 | 74 | 249 | 3.0 | 4.0 | 0.00 | 0.00 | 0.00 | 71 | 1018.9 |
| 20260902213537 | 74 | 236 | 2.0 | 4.0 | 0.00 | 0.00 | 0.00 | 72 | 1018.8 |
| 20260902212534 | 74 | 248 | 2.0 | 2.0 | 0.00 | 0.00 | 0.00 | 72 | 1019.0 |
| 20260902211532 | 75 | 203 | 0.0 | 2.0 | 0.00 | 0.00 | 0.00 | 72 | 1018.9 |
| 20260902210529 | 75 | 203 | 0.0 | 2.0 | 0.00 | 0.00 | 0.00 | 72 | 1018.8 |
| 20260902205527 | 75 | 315 | 1.0 | 2.0 | 0.00 | 0.00 | 0.00 | 72 | 1018.7 |
| 20260902204524 | 75 | 270 | 1.0 | 2.0 | 0.00 | 0.00 | 0.00 | 72 | 1018.7 |
| 20260902203521 | 75 | 245 | 2.0 | 4.0 | 0.00 | 0.00 | 0.00 | 72 | 1018.7 |
| 20260902202519 | 76 | 207 | 1.0 | 2.0 | 0.00 | 0.00 | 0.00 | 71 | 1018.8 |
| 20260902201516 | 76 | 224 | 2.0 | 4.0 | 0.00 | 0.00 | 0.00 | 71 | 1018.8 |
| 20260902200614 | 76 | 276 | 1.0 | 2.0 | 0.00 | 0.00 | 0.00 | 71 | 1018.7 |
| 20260902195611 | 76 | 305 | 3.0 | 4.0 | 0.00 | 0.00 | 0.00 | 71 | 1018.7 |
| 20260902194608 | 76 | 311 | 4.0 | 6.0 | 0.00 | 0.00 | 0.00 | 70 | 1018.6 |
| 20260902193606 | 76 | 3 | 2.0 | 4.0 | 0.00 | 0.00 | 0.00 | 69 | 1018.4 |
| 20260902192603 | 76 | 1 | 2.0 | 4.0 | 0.00 | 0.00 | 0.00 | 69 | 1018.4 |
| 20260902191601 | 77 | 113 | 2.0 | 4.0 | 0.00 | 0.00 | 0.00 | 69 | 1018.4 |
| 20260902190558 | 77 | 101 | 2.0 | 6.0 | 0.00 | 0.00 | 0.00 | 68 | 1018.1 |
| 20260902185555 | 77 | 22 | 3.0 | 8.0 | 0.00 | 0.00 | 0.00 | 68 | 1018.0 |
| 20260902184553 | 77 | 92 | 2.0 | 7.0 | 0.00 | 0.00 | 0.00 | 68 | 1017.8 |
| 20260902183550 | 78 | 22 | 4.0 | 8.0 | 0.00 | 0.00 | 0.00 | 67 | 1017.8 |
| 20260902182548 | 78 | 37 | 4.0 | 11.0 | 0.00 | 0.00 | 0.00 | 66 | 1017.8 |
| 20260902181545 | 79 | 81 | 3.0 | 8.0 | 0.00 | 0.00 | 0.00 | 65 | 1017.6 |